TKJ97R LTAC-LTBH

Flight info

Callsign TKJ97R
Flight time 1h 3m
Altitude 33000
Route YAVRU UL615 ERSEN UA4 NUMSO UL615 BKZ UN604 BIG
Aircraft A320/M-SDE3FGHIRWY/LB1

Departure

Time 2026-04-21 13:59
Airport Esenboğa International Airport (LTAC)

Arrival

Time 2026-04-21 15:03
Airport Çanakkale Airport (LTBH)
Time Latitude Longitude Altitude Speed Heading
2026-04-21 13:35 40.11459 32.98915 3113 ft 0 kts 127°
2026-04-21 13:48 40.11465 32.98905 3113 ft 4 kts 124°
2026-04-21 13:48 40.11478 32.98874 3113 ft 4 kts 109°
2026-04-21 13:48 40.11482 32.98841 3113 ft 4 kts 75°
2026-04-21 13:48 40.11474 32.98822 3113 ft 0 kts 37°
2026-04-21 13:51 40.11475 32.98822 3113 ft 1 kts 38°
2026-04-21 13:51 40.11485 32.98833 3113 ft 3 kts 38°
2026-04-21 13:51 40.11513 32.98861 3113 ft 8 kts 38°
2026-04-21 13:51 40.11566 32.98923 3113 ft 11 kts 44°
2026-04-21 13:52 40.11634 32.98928 3113 ft 11 kts 314°
2026-04-21 13:52 40.11692 32.98895 3113 ft 10 kts 26°
2026-04-21 13:52 40.11755 32.98956 3113 ft 14 kts 36°
2026-04-21 13:52 40.11845 32.99042 3114 ft 17 kts 36°
2026-04-21 13:53 40.11939 32.99132 3114 ft 17 kts 36°
2026-04-21 13:53 40.12032 32.99221 3116 ft 16 kts 36°
2026-04-21 13:53 40.12125 32.99309 3117 ft 17 kts 36°
2026-04-21 13:53 40.12187 32.99369 3118 ft 16 kts 36°
2026-04-21 13:54 40.12279 32.99456 3118 ft 16 kts 36°
2026-04-21 13:54 40.12374 32.99548 3120 ft 19 kts 36°
2026-04-21 13:54 40.12493 32.99662 3122 ft 22 kts 36°
2026-04-21 13:54 40.12615 32.99778 3123 ft 22 kts 36°
2026-04-21 13:55 40.12738 32.99895 3123 ft 22 kts 36°
2026-04-21 13:55 40.12862 33.00015 3124 ft 22 kts 36°
2026-04-21 13:55 40.12986 33.00133 3124 ft 22 kts 36°
2026-04-21 13:55 40.13110 33.00251 3126 ft 22 kts 36°
2026-04-21 13:56 40.13233 33.00368 3128 ft 22 kts 36°
2026-04-21 13:56 40.13355 33.00484 3130 ft 22 kts 36°
2026-04-21 13:56 40.13472 33.00595 3131 ft 21 kts 36°
2026-04-21 13:56 40.13589 33.00705 3132 ft 21 kts 36°
2026-04-21 13:57 40.13702 33.00817 3133 ft 20 kts 36°
2026-04-21 13:57 40.13816 33.00926 3134 ft 20 kts 36°
2026-04-21 13:57 40.13930 33.01034 3135 ft 20 kts 36°
2026-04-21 13:57 40.14047 33.01067 3136 ft 18 kts 339°
2026-04-21 13:58 40.14110 33.00947 3136 ft 15 kts 286°
2026-04-21 13:58 40.14166 33.00836 3136 ft 14 kts 307°
2026-04-21 13:58 40.14217 33.00729 3136 ft 14 kts 280°
2026-04-21 13:58 40.14183 33.00663 3135 ft 0 kts 215°
2026-04-21 13:59 40.14119 33.00602 3135 ft 42 kts 216°
2026-04-21 13:59 40.13668 33.00170 3131 ft 115 kts 216°
2026-04-21 13:59 40.12864 32.99397 3151 ft 167 kts 218°
2026-04-21 13:59 40.11878 32.98448 3729 ft 185 kts 218°
2026-04-21 14:00 40.10809 32.97438 4336 ft 191 kts 219°
2026-04-21 14:00 40.09720 32.96417 4922 ft 193 kts 218°
2026-04-21 14:00 40.08626 32.95392 5493 ft 194 kts 218°
2026-04-21 14:00 40.07535 32.94369 6085 ft 193 kts 218°
2026-04-21 14:01 40.06434 32.93331 6559 ft 202 kts 218°
2026-04-21 14:01 40.05231 32.92189 6817 ft 226 kts 218°
2026-04-21 14:01 40.03913 32.90941 7251 ft 242 kts 218°
2026-04-21 14:01 40.02531 32.89606 7954 ft 248 kts 224°
2026-04-21 14:02 40.01619 32.87754 8681 ft 247 kts 258°
2026-04-21 14:02 40.01706 32.85475 9098 ft 266 kts 289°
2026-04-21 14:02 40.02626 32.83324 9683 ft 277 kts 304°
2026-04-21 14:03 40.05206 32.79331 10455 ft 310 kts 309°
2026-04-21 14:03 40.06672 32.77127 10590 ft 332 kts 308°
2026-04-21 14:03 40.08174 32.74764 10963 ft 342 kts 307°
2026-04-21 14:03 40.09663 32.72311 11558 ft 346 kts 306°
2026-04-21 14:04 40.11135 32.69794 12184 ft 349 kts 305°
2026-04-21 14:04 40.12595 32.67241 12826 ft 352 kts 304°
2026-04-21 14:04 40.14054 32.64656 13503 ft 354 kts 304°
2026-04-21 14:04 40.15519 32.62050 14104 ft 357 kts 304°
2026-04-21 14:05 40.16994 32.59428 14669 ft 360 kts 304°
2026-04-21 14:05 40.18484 32.56787 15219 ft 362 kts 305°
2026-04-21 14:05 40.19994 32.54128 15752 ft 365 kts 306°
2026-04-21 14:05 40.21729 32.51679 16262 ft 370 kts 315°
2026-04-21 14:06 40.23612 32.49367 16816 ft 372 kts 315°
2026-04-21 14:06 40.25510 32.47037 17359 ft 375 kts 315°
2026-04-21 14:06 40.27419 32.44687 17900 ft 378 kts 315°
2026-04-21 14:06 40.29309 32.42352 18452 ft 379 kts 314°
2026-04-21 14:07 40.31233 32.39976 18960 ft 381 kts 314°
2026-04-21 14:07 40.33164 32.37595 19451 ft 382 kts 314°
2026-04-21 14:07 40.35109 32.35196 19952 ft 384 kts 314°
2026-04-21 14:07 40.37054 32.32789 20454 ft 386 kts 314°
2026-04-21 14:08 40.39008 32.30366 20935 ft 388 kts 314°
2026-04-21 14:08 40.40972 32.27929 21415 ft 390 kts 314°
2026-04-21 14:08 40.42945 32.25478 21873 ft 391 kts 314°
2026-04-21 14:08 40.44923 32.23018 22324 ft 393 kts 313°
2026-04-21 14:09 40.46723 32.20333 22779 ft 391 kts 303°
2026-04-21 14:09 40.48136 32.17283 23230 ft 391 kts 294°
2026-04-21 14:09 40.49170 32.13984 23628 ft 392 kts 290°
2026-04-21 14:09 40.50152 32.10636 23974 ft 393 kts 290°
2026-04-21 14:10 40.51144 32.07280 24343 ft 394 kts 290°
2026-04-21 14:10 40.52143 32.03912 24714 ft 395 kts 290°
2026-04-21 14:10 40.53142 32.00543 25074 ft 396 kts 290°
2026-04-21 14:10 40.54141 31.97167 25451 ft 397 kts 290°
2026-04-21 14:11 40.55143 31.93769 25834 ft 398 kts 290°
2026-04-21 14:11 40.56143 31.90371 26193 ft 399 kts 290°
2026-04-21 14:11 40.57144 31.86963 26558 ft 400 kts 290°
2026-04-21 14:11 40.58148 31.83540 26922 ft 401 kts 290°
2026-04-21 14:12 40.59105 31.80089 27296 ft 401 kts 289°
2026-04-21 14:12 40.59987 31.76616 27827 ft 399 kts 288°
2026-04-21 14:12 40.60820 31.73156 28374 ft 396 kts 287°
2026-04-21 14:12 40.61636 31.69711 28912 ft 393 kts 287°
2026-04-21 14:13 40.62450 31.66287 29451 ft 391 kts 287°
2026-04-21 14:13 40.63270 31.62889 29951 ft 388 kts 288°
2026-04-21 14:13 40.64095 31.59514 30392 ft 386 kts 288°
2026-04-21 14:13 40.64924 31.56154 30816 ft 385 kts 288°
2026-04-21 14:14 40.65756 31.52794 31245 ft 383 kts 288°
2026-04-21 14:14 40.66581 31.49459 31667 ft 382 kts 288°
2026-04-21 14:14 40.67400 31.46135 32086 ft 381 kts 288°
2026-04-21 14:14 40.68214 31.42816 32502 ft 380 kts 287°
2026-04-21 14:15 40.69023 31.39507 32870 ft 379 kts 287°
2026-04-21 14:15 40.70649 31.32818 32956 ft 390 kts 287°
2026-04-21 14:16 40.72310 31.25977 32956 ft 393 kts 287°
2026-04-21 14:16 40.73979 31.19104 32957 ft 394 kts 287°
2026-04-21 14:17 40.75634 31.12261 32970 ft 394 kts 287°
2026-04-21 14:17 40.77308 31.05326 32947 ft 395 kts 287°
2026-04-21 14:18 40.78962 30.98451 32952 ft 395 kts 287°
2026-04-21 14:18 40.80624 30.91534 32957 ft 396 kts 287°
2026-04-21 14:19 40.82285 30.84599 32959 ft 396 kts 287°
2026-04-21 14:19 40.83941 30.77668 32972 ft 396 kts 287°
2026-04-21 14:20 40.85585 30.70729 32969 ft 396 kts 287°
2026-04-21 14:20 40.87173 30.63750 32977 ft 396 kts 284°
2026-04-21 14:21 40.88397 30.56664 32979 ft 396 kts 276°
2026-04-21 14:21 40.88325 30.53022 32974 ft 398 kts 263°
2026-04-21 14:21 40.87824 30.49416 32972 ft 399 kts 262°
2026-04-21 14:22 40.86769 30.42199 32972 ft 400 kts 261°
2026-04-21 14:22 40.85692 30.34980 32962 ft 400 kts 262°
2026-04-21 14:23 40.84618 30.27770 32973 ft 400 kts 261°
2026-04-21 14:23 40.83544 30.20548 32971 ft 401 kts 261°
2026-04-21 14:24 40.82472 30.13325 32957 ft 401 kts 261°
2026-04-21 14:24 40.81390 30.06097 32951 ft 401 kts 261°
2026-04-21 14:25 40.80300 29.98867 32963 ft 402 kts 261°
2026-04-21 14:25 40.79203 29.91639 32962 ft 402 kts 261°
2026-04-21 14:26 40.78109 29.84457 32950 ft 402 kts 261°
2026-04-21 14:26 40.77001 29.77182 32966 ft 402 kts 261°
2026-04-21 14:27 40.75900 29.69995 32956 ft 402 kts 261°
2026-04-21 14:27 40.74784 29.62765 32957 ft 402 kts 261°
2026-04-21 14:28 40.73664 29.55538 32955 ft 402 kts 261°
2026-04-21 14:28 40.72547 29.48319 32941 ft 402 kts 261°
2026-04-21 14:29 40.71423 29.41084 32939 ft 402 kts 261°
2026-04-21 14:29 40.70293 29.33872 32948 ft 402 kts 261°
2026-04-21 14:30 40.69150 29.26640 32930 ft 402 kts 261°
2026-04-21 14:30 40.68002 29.19416 32937 ft 403 kts 261°
2026-04-21 14:31 40.66853 29.12192 32936 ft 403 kts 261°
2026-04-21 14:31 40.65704 29.04968 32940 ft 403 kts 261°
2026-04-21 14:31 40.65131 29.01362 32837 ft 401 kts 261°
2026-04-21 14:32 40.64557 28.97764 32444 ft 402 kts 261°
2026-04-21 14:32 40.63979 28.94159 32042 ft 404 kts 260°
2026-04-21 14:32 40.63395 28.90537 31650 ft 406 kts 260°
2026-04-21 14:32 40.62808 28.86900 31256 ft 407 kts 261°
2026-04-21 14:33 40.62219 28.83240 30878 ft 409 kts 261°
2026-04-21 14:33 40.61628 28.79573 30507 ft 411 kts 260°
2026-04-21 14:33 40.61030 28.75892 30140 ft 412 kts 260°
2026-04-21 14:33 40.60425 28.72201 29737 ft 414 kts 260°
2026-04-21 14:34 40.60022 28.69738 29451 ft 414 kts 260°
2026-04-21 14:34 40.59413 28.66019 29028 ft 416 kts 260°
2026-04-21 14:34 40.58804 28.62302 28607 ft 417 kts 260°
2026-04-21 14:34 40.58190 28.58563 28198 ft 416 kts 260°
2026-04-21 14:35 40.57379 28.53639 27659 ft 414 kts 260°
2026-04-21 14:35 40.56967 28.51149 27390 ft 412 kts 260°
2026-04-21 14:35 40.56359 28.47475 26996 ft 410 kts 260°
2026-04-21 14:35 40.55754 28.43817 26595 ft 408 kts 260°
2026-04-21 14:36 40.55151 28.40172 26211 ft 406 kts 259°
2026-04-21 14:36 40.54551 28.36561 25836 ft 404 kts 259°
2026-04-21 14:36 40.53952 28.32961 25461 ft 402 kts 259°
2026-04-21 14:36 40.53354 28.29385 25095 ft 400 kts 259°
2026-04-21 14:37 40.52757 28.25820 24730 ft 398 kts 259°
2026-04-21 14:37 40.52172 28.22323 24377 ft 396 kts 259°
2026-04-21 14:37 40.51574 28.18747 24021 ft 395 kts 259°
2026-04-21 14:37 40.50985 28.15237 23674 ft 393 kts 259°
2026-04-21 14:38 40.50396 28.11736 23288 ft 391 kts 259°
2026-04-21 14:38 40.49815 28.08297 22885 ft 389 kts 259°
2026-04-21 14:38 40.49221 28.04796 22472 ft 387 kts 259°
2026-04-21 14:38 40.48644 28.01393 22074 ft 385 kts 259°
2026-04-21 14:39 40.48064 27.97974 21659 ft 383 kts 259°
2026-04-21 14:39 40.47485 27.94576 21272 ft 381 kts 259°
2026-04-21 14:39 40.46909 27.91179 20882 ft 379 kts 259°
2026-04-21 14:39 40.46338 27.87819 20504 ft 376 kts 259°
2026-04-21 14:40 40.45767 27.84475 20122 ft 374 kts 259°
2026-04-21 14:40 40.45197 27.81150 19756 ft 373 kts 259°
2026-04-21 14:40 40.44625 27.77837 19389 ft 371 kts 259°
2026-04-21 14:40 40.44055 27.74546 19021 ft 369 kts 258°
2026-04-21 14:41 40.43488 27.71268 18660 ft 367 kts 258°
2026-04-21 14:41 40.42928 27.68014 18307 ft 365 kts 258°
2026-04-21 14:41 40.42368 27.64770 17915 ft 363 kts 258°
2026-04-21 14:41 40.41809 27.61547 17517 ft 361 kts 258°
2026-04-21 14:42 40.41253 27.58343 17118 ft 359 kts 258°
2026-04-21 14:42 40.40702 27.55153 16724 ft 357 kts 258°
2026-04-21 14:42 40.40152 27.51976 16315 ft 356 kts 258°
2026-04-21 14:42 40.39604 27.48820 15930 ft 354 kts 258°
2026-04-21 14:43 40.39053 27.45671 15559 ft 353 kts 258°
2026-04-21 14:43 40.38504 27.42544 15184 ft 351 kts 258°
2026-04-21 14:43 40.37956 27.39437 14815 ft 349 kts 258°
2026-04-21 14:43 40.37410 27.36341 14450 ft 347 kts 258°
2026-04-21 14:44 40.36868 27.33265 14097 ft 346 kts 258°
2026-04-21 14:44 40.36328 27.30201 13732 ft 344 kts 258°
2026-04-21 14:44 40.35790 27.27155 13333 ft 342 kts 258°
2026-04-21 14:44 40.35253 27.24118 12930 ft 341 kts 258°
2026-04-21 14:45 40.34719 27.21098 12537 ft 339 kts 258°
2026-04-21 14:45 40.34190 27.18099 12149 ft 337 kts 258°
2026-04-21 14:45 40.33661 27.15113 11772 ft 335 kts 257°
2026-04-21 14:45 40.33134 27.12154 11394 ft 333 kts 257°
2026-04-21 14:46 40.32608 27.09205 11011 ft 331 kts 257°
2026-04-21 14:46 40.32086 27.06276 10638 ft 331 kts 257°
2026-04-21 14:46 40.31564 27.03344 10271 ft 330 kts 257°
2026-04-21 14:46 40.31043 27.00425 9908 ft 329 kts 257°
2026-04-21 14:47 40.30525 26.97538 9522 ft 322 kts 257°
2026-04-21 14:47 40.30014 26.94712 9127 ft 315 kts 257°
2026-04-21 14:47 40.29511 26.91944 8734 ft 310 kts 257°
2026-04-21 14:47 40.29017 26.89214 8348 ft 305 kts 257°
2026-04-21 14:48 40.28539 26.86529 7972 ft 302 kts 258°
2026-04-21 14:48 40.28276 26.83810 7590 ft 300 kts 266°
2026-04-21 14:48 40.28255 26.81089 7220 ft 297 kts 268°
2026-04-21 14:48 40.28247 26.78427 6853 ft 295 kts 268°
2026-04-21 14:49 40.28234 26.75756 6570 ft 290 kts 268°
2026-04-21 14:49 40.28218 26.73160 6424 ft 280 kts 268°
2026-04-21 14:49 40.28203 26.70655 6276 ft 271 kts 268°
2026-04-21 14:49 40.28189 26.68228 6121 ft 262 kts 268°
2026-04-21 14:50 40.28180 26.66627 6018 ft 258 kts 268°
2026-04-21 14:50 40.28161 26.63523 5812 ft 256 kts 267°
2026-04-21 14:50 40.28145 26.61189 5659 ft 256 kts 267°
2026-04-21 14:50 40.28127 26.58848 5507 ft 256 kts 267°
2026-04-21 14:51 40.28108 26.56513 5356 ft 257 kts 267°
2026-04-21 14:51 40.28089 26.54180 5242 ft 256 kts 268°
2026-04-21 14:51 40.28069 26.51850 5184 ft 257 kts 268°
2026-04-21 14:51 40.28049 26.49531 5062 ft 256 kts 268°
2026-04-21 14:52 40.28028 26.47197 4999 ft 255 kts 268°
2026-04-21 14:52 40.28010 26.44873 5003 ft 257 kts 268°
2026-04-21 14:52 40.27916 26.42512 5007 ft 256 kts 260°
2026-04-21 14:52 40.27503 26.40259 5007 ft 255 kts 250°
2026-04-21 14:53 40.26778 26.38179 5008 ft 254 kts 239°
2026-04-21 14:53 40.25751 26.36292 5009 ft 254 kts 229°
2026-04-21 14:53 40.24475 26.34687 5008 ft 255 kts 221°
2026-04-21 14:53 40.23131 26.33172 5008 ft 256 kts 222°
2026-04-21 14:54 40.21790 26.31646 5008 ft 255 kts 222°
2026-04-21 14:54 40.20452 26.30123 5008 ft 255 kts 222°
2026-04-21 14:54 40.19111 26.28599 5008 ft 255 kts 222°
2026-04-21 14:54 40.17772 26.27078 5007 ft 255 kts 222°
2026-04-21 14:55 40.16432 26.25556 5016 ft 256 kts 223°
2026-04-21 14:55 40.15083 26.24023 5020 ft 256 kts 223°
2026-04-21 14:55 40.13735 26.22494 4948 ft 257 kts 222°
2026-04-21 14:55 40.12390 26.20969 4842 ft 255 kts 222°
2026-04-21 14:56 40.11050 26.19453 4701 ft 255 kts 222°
2026-04-21 14:56 40.09723 26.17951 4580 ft 254 kts 222°
2026-04-21 14:56 40.08404 26.16461 4432 ft 247 kts 222°
2026-04-21 14:56 40.07115 26.15006 4271 ft 243 kts 221°
2026-04-21 14:57 40.05656 26.13920 4125 ft 244 kts 197°
2026-04-21 14:57 40.03967 26.13889 3968 ft 245 kts 167°
2026-04-21 14:57 40.02493 26.14946 3821 ft 243 kts 138°
2026-04-21 14:57 40.01377 26.16576 3674 ft 238 kts 134°
2026-04-21 14:58 40.00299 26.18203 3526 ft 237 kts 134°
2026-04-21 14:58 39.99219 26.19825 3391 ft 236 kts 134°
2026-04-21 14:58 39.98172 26.21448 3264 ft 231 kts 127°
2026-04-21 14:58 39.97744 26.23423 3139 ft 233 kts 85°
2026-04-21 14:59 39.98403 26.25312 3013 ft 234 kts 45°
2026-04-21 14:59 39.99626 26.26727 2878 ft 234 kts 39°
2026-04-21 14:59 40.00859 26.28064 2753 ft 227 kts 39°
2026-04-21 14:59 40.02042 26.29389 2673 ft 222 kts 40°
2026-04-21 15:00 40.03189 26.30688 2483 ft 214 kts 40°
2026-04-21 15:00 40.04293 26.31940 2215 ft 205 kts 40°
2026-04-21 15:00 40.05329 26.33115 1985 ft 187 kts 40°
2026-04-21 15:00 40.06259 26.34171 1728 ft 170 kts 39°
2026-04-21 15:01 40.07125 26.35154 1497 ft 163 kts 40°
2026-04-21 15:01 40.07987 26.36133 1281 ft 164 kts 41°
2026-04-21 15:01 40.08857 26.37120 1071 ft 164 kts 40°
2026-04-21 15:01 40.09712 26.38092 830 ft 163 kts 42°
2026-04-21 15:02 40.10555 26.39051 637 ft 159 kts 40°
2026-04-21 15:02 40.11391 26.40001 390 ft 160 kts 41°
2026-04-21 15:02 40.12224 26.40948 209 ft 159 kts 40°
2026-04-21 15:02 40.13045 26.41883 31 ft 148 kts 40°
2026-04-21 15:03 40.13683 26.42607 26 ft 77 kts 41°
2026-04-21 15:03 40.13936 26.42895 30 ft 40 kts 40°
2026-04-21 15:03 40.14140 26.43125 29 ft 35 kts 41°
2026-04-21 15:03 40.14286 26.43315 25 ft 15 kts 60°
2026-04-21 15:04 40.14325 26.43304 26 ft 6 kts 253°
2026-04-21 15:04 40.14243 26.43239 30 ft 20 kts 214°
2026-04-21 15:04 40.14136 26.43121 29 ft 22 kts 221°
2026-04-21 15:04 40.14015 26.42982 30 ft 24 kts 221°
2026-04-21 15:05 40.13884 26.42832 28 ft 27 kts 221°
2026-04-21 15:05 40.13739 26.42526 25 ft 17 kts 311°
2026-04-21 15:05 40.13808 26.42444 27 ft 13 kts 328°
2026-04-21 15:06 40.13841 26.42398 27 ft 1 kts 310°
2026-04-21 15:06 40.13846 26.42390 27 ft 0 kts 309°